When you browse on this site, cookies collect data to enhance your experience and personalize the content and advertising you see.
Visit our Privacy Policy to learn more. By continuing to use the site, you agree to this use of cookies and data.
  • In Schweiz
  • Länderverzeichnis
  • Für 7 Tage
  • Wassertemperatur
  • Wetterkarte
  • Widgets
  • user-avatar
    Anmelden

    Stündliche Wetter Lyon

    Heute, 30 Mai, Samstag

    Zeit Temperatur Niederschläge Wind Luftdruck Luftfeuchtigkeit
    00:00 +13°C° 0 mm 1 m/S 749 mmHg 82%
    01:00 +12°C° 0 mm 1 m/S 748 mmHg 83%
    02:00 +11°C° 0 mm 0 m/S 748 mmHg 84%
    03:00 +10°C° 0 mm 0 m/S 748 mmHg 86%
    04:00 +11°C° 0 mm 0 m/S 748 mmHg 83%
    05:00 +12°C° 0 mm 0 m/S 748 mmHg 80%
    06:00 +13°C° 0 mm 0 m/S 748 mmHg 77%
    07:00 +16°C° 0 mm 1 m/S 747 mmHg 71%
    08:00 +19°C° 0 mm 1 m/S 747 mmHg 65%
    09:00 +21°C° 0 mm 1 m/S 747 mmHg 59%
    10:00 +22°C° 0 mm 1 m/S 747 mmHg 56%
    11:00 +23°C° 0 mm 2 m/S 746 mmHg 53%
    12:00 +24°C° 0 mm 2 m/S 746 mmHg 49%
    13:00 +24°C° 0 mm 2 m/S 746 mmHg 49%
    14:00 +24°C° 0 mm 2 m/S 746 mmHg 48%
    15:00 +24°C° 0 mm 2 m/S 745 mmHg 48%
    16:00 +24°C° 0 mm 2 m/S 745 mmHg 54%
    17:00 +23°C° 0 mm 2 m/S 745 mmHg 61%
    18:00 +21°C° 0 mm 2 m/S 745 mmHg 68%
    19:00 +19°C° 0 mm 2 m/S 746 mmHg 71%
    20:00 +17°C° 0 mm 2 m/S 746 mmHg 74%
    21:00 +15°C° 0 mm 1 m/S 746 mmHg 78%
    22:00 +15°C° 0 mm 1 m/S 746 mmHg 79%
    23:00 +14°C° 0 mm 1 m/S 746 mmHg 80%

    Morgen, 31 Mai, Sonntag

    Zeit Temperatur Niederschläge Wind Luftdruck Luftfeuchtigkeit
    00:00 +13°C° 0 mm 1 m/S 746 mmHg 81%
    01:00 +12°C° 0 mm 1 m/S 746 mmHg 82%
    02:00 +12°C° 0 mm 1 m/S 746 mmHg 83%
    03:00 +11°C° 0 mm 1 m/S 746 mmHg 85%
    04:00 +12°C° 0 mm 1 m/S 746 mmHg 82%
    05:00 +13°C° 0 mm 1 m/S 746 mmHg 80%
    06:00 +13°C° 0 mm 1 m/S 746 mmHg 77%
    07:00 +15°C° 0 mm 1 m/S 746 mmHg 71%
    08:00 +18°C° 0 mm 1 m/S 746 mmHg 65%
    09:00 +20°C° 0 mm 1 m/S 746 mmHg 59%
    10:00 +22°C° 0 mm 1 m/S 746 mmHg 55%
    11:00 +23°C° 0 mm 2 m/S 745 mmHg 52%
    12:00 +24°C° 0 mm 2 m/S 745 mmHg 49%
    13:00 +24°C° 0 mm 2 m/S 745 mmHg 49%
    14:00 +24°C° 0 mm 2 m/S 745 mmHg 48%
    15:00 +25°C° 0 mm 2 m/S 745 mmHg 48%
    16:00 +24°C° 0 mm 2 m/S 745 mmHg 54%
    17:00 +23°C° 0 mm 2 m/S 745 mmHg 60%
    18:00 +21°C° 0 mm 2 m/S 745 mmHg 66%
    19:00 +19°C° 0 mm 2 m/S 746 mmHg 71%
    20:00 +18°C° 0 mm 1 m/S 746 mmHg 76%
    21:00 +16°C° 0 mm 1 m/S 746 mmHg 80%
    22:00 +15°C° 0 mm 1 m/S 746 mmHg 81%
    23:00 +13°C° 0 mm 0 m/S 746 mmHg 82%

    übermorgen, 1 Juni, Montag

    Zeit Temperatur Niederschläge Wind Luftdruck Luftfeuchtigkeit
    00:00 +13°C° 0 mm 0 m/S 746 mmHg 83%
    01:00 +12°C° 0 mm 0 m/S 746 mmHg 85%
    02:00 +12°C° 0 mm 0 m/S 746 mmHg 86%
    03:00 +12°C° 0 mm 0 m/S 746 mmHg 87%
    04:00 +13°C° 0 mm 0 m/S 746 mmHg 85%
    05:00 +15°C° 0 mm 1 m/S 746 mmHg 82%
    06:00 +16°C° 0 mm 1 m/S 747 mmHg 80%
    07:00 +19°C° 0 mm 1 m/S 746 mmHg 74%
    08:00 +21°C° 0 mm 1 m/S 746 mmHg 69%
    09:00 +23°C° 0 mm 1 m/S 746 mmHg 64%
    10:00 +24°C° 0 mm 1 m/S 746 mmHg 60%
    11:00 +25°C° 0 mm 1 m/S 746 mmHg 56%
    12:00 +27°C° 0 mm 1 m/S 746 mmHg 52%
    13:00 +27°C° 0 mm 1 m/S 746 mmHg 50%
    14:00 +27°C° 0 mm 1 m/S 746 mmHg 48%
    15:00 +28°C° 0 mm 1 m/S 746 mmHg 46%
    16:00 +27°C° 0 mm 1 m/S 746 mmHg 52%
    17:00 +26°C° 0 mm 1 m/S 746 mmHg 57%
    18:00 +25°C° 0 mm 1 m/S 746 mmHg 62%
    19:00 +23°C° 0 mm 1 m/S 746 mmHg 69%
    20:00 +21°C° 0 mm 1 m/S 747 mmHg 75%
    21:00 +19°C° 0 mm 1 m/S 747 mmHg 81%
    22:00 +18°C° 0 mm 1 m/S 747 mmHg 82%
    23:00 +16°C° 0 mm 0 m/S 747 mmHg 84%

    2 Juni, Dienstag

    Zeit Temperatur Niederschläge Wind Luftdruck Luftfeuchtigkeit
    00:00 +15°C° 0 mm 0 m/S 747 mmHg 85%
    01:00 +15°C° 0 mm 0 m/S 747 mmHg 86%
    02:00 +14°C° 0 mm 0 m/S 747 mmHg 87%
    03:00 +14°C° 0 mm 0 m/S 747 mmHg 88%
    04:00 +15°C° 0 mm 0 m/S 747 mmHg 85%
    05:00 +18°C° 0 mm 1 m/S 747 mmHg 83%
    06:00 +19°C° 0 mm 1 m/S 747 mmHg 80%
    07:00 +21°C° 0 mm 1 m/S 747 mmHg 74%
    08:00 +23°C° 0 mm 1 m/S 747 mmHg 67%
    09:00 +25°C° 0 mm 1 m/S 746 mmHg 61%
    10:00 +26°C° 0 mm 1 m/S 746 mmHg 56%
    11:00 +27°C° 0 mm 1 m/S 746 mmHg 51%
    12:00 +29°C° 0 mm 1 m/S 745 mmHg 46%
    13:00 +28°C° 0.1 mm 1 m/S 745 mmHg 48%
    14:00 +28°C° 0.1 mm 1 m/S 744 mmHg 49%
    15:00 +28°C° 0.1 mm 1 m/S 744 mmHg 51%
    16:00 +27°C° 0.2 mm 1 m/S 744 mmHg 57%
    17:00 +27°C° 0.2 mm 1 m/S 743 mmHg 63%
    18:00 +26°C° 0.2 mm 1 m/S 743 mmHg 69%
    19:00 +24°C° 0.4 mm 1 m/S 743 mmHg 73%
    20:00 +22°C° 0.4 mm 1 m/S 743 mmHg 78%
    21:00 +19°C° 0.4 mm 2 m/S 743 mmHg 82%
    22:00 +18°C° 0.5 mm 2 m/S 743 mmHg 84%
    23:00 +19°C° 0.5 mm 1 m/S 742 mmHg 86%

    3 Juni, Mittwoch

    Zeit Temperatur Niederschläge Wind Luftdruck Luftfeuchtigkeit
    00:00 +18°C° 0.5 mm 1 m/S 742 mmHg 88%
    01:00 +17°C° 0.5 mm 2 m/S 742 mmHg 89%
    02:00 +17°C° 0.5 mm 2 m/S 741 mmHg 89%
    03:00 +17°C° 0.5 mm 2 m/S 741 mmHg 90%
    04:00 +17°C° 0.4 mm 2 m/S 740 mmHg 89%
    05:00 +18°C° 0.4 mm 2 m/S 740 mmHg 89%
    06:00 +18°C° 0.4 mm 2 m/S 740 mmHg 88%
    07:00 +19°C° 0.3 mm 2 m/S 740 mmHg 84%
    08:00 +21°C° 0.3 mm 3 m/S 739 mmHg 80%
    09:00 +22°C° 0.3 mm 3 m/S 739 mmHg 76%
    10:00 +24°C° 1.4 mm 3 m/S 739 mmHg 74%
    11:00 +23°C° 1.4 mm 4 m/S 738 mmHg 72%
    12:00 +25°C° 1.4 mm 4 m/S 738 mmHg 70%
    13:00 +25°C° 0.9 mm 4 m/S 738 mmHg 70%
    14:00 +25°C° 0.9 mm 4 m/S 737 mmHg 70%
    15:00 +25°C° 0.9 mm 4 m/S 737 mmHg 70%
    16:00 +22°C° 0.7 mm 3 m/S 737 mmHg 76%
    17:00 +20°C° 0.7 mm 3 m/S 737 mmHg 81%
    18:00 +19°C° 0.7 mm 3 m/S 737 mmHg 86%
    19:00 +19°C° 0.4 mm 3 m/S 737 mmHg 86%
    20:00 +18°C° 0.4 mm 3 m/S 737 mmHg 87%
    21:00 +18°C° 0.4 mm 3 m/S 738 mmHg 87%
    22:00 +18°C° 0.2 mm 2 m/S 737 mmHg 88%
    23:00 +17°C° 0.2 mm 2 m/S 737 mmHg 89%

    4 Juni, Donnerstag

    Zeit Temperatur Niederschläge Wind Luftdruck Luftfeuchtigkeit
    00:00 +17°C° 0.2 mm 2 m/S 737 mmHg 90%
    01:00 +17°C° 0.9 mm 2 m/S 736 mmHg 91%
    02:00 +17°C° 0.9 mm 2 m/S 736 mmHg 93%
    03:00 +17°C° 0.9 mm 2 m/S 735 mmHg 94%
    04:00 +17°C° 2.3 mm 2 m/S 735 mmHg 95%
    05:00 +18°C° 2.3 mm 1 m/S 735 mmHg 95%
    06:00 +18°C° 2.3 mm 1 m/S 735 mmHg 96%
    07:00 +16°C° 3.1 mm 1 m/S 735 mmHg 94%
    08:00 +15°C° 3.1 mm 1 m/S 735 mmHg 93%
    09:00 +14°C° 3.1 mm 2 m/S 735 mmHg 92%
    10:00 +15°C° 0.5 mm 2 m/S 735 mmHg 91%
    11:00 +15°C° 0.5 mm 1 m/S 735 mmHg 90%
    12:00 +15°C° 0.5 mm 1 m/S 735 mmHg 89%
    13:00 +16°C° 0.5 mm 1 m/S 734 mmHg 88%
    14:00 +16°C° 0.5 mm 1 m/S 734 mmHg 88%
    15:00 +18°C° 0.5 mm 1 m/S 734 mmHg 87%
    16:00 +17°C° 0.3 mm 2 m/S 734 mmHg 89%
    17:00 +17°C° 0.3 mm 2 m/S 734 mmHg 90%
    18:00 +17°C° 0.3 mm 3 m/S 734 mmHg 92%
    19:00 +16°C° 0.5 mm 2 m/S 734 mmHg 91%
    20:00 +16°C° 0.5 mm 2 m/S 734 mmHg 91%
    21:00 +15°C° 0.5 mm 2 m/S 735 mmHg 90%
    22:00 +15°C° 0.3 mm 2 m/S 735 mmHg 89%
    23:00 +14°C° 0.3 mm 2 m/S 735 mmHg 87%
    Mehr zeigen